Regional Weather Roundup
Issued by NWS Grand Forks, ND

Home | Current Version | Previous Version | Graphics & Text | Print | Product List | Glossary On
Versions: 1 2 3 4 5 6 7 8 9 10 11 12 13 14 15 16 17 18 19 20 21 22 23 24 25 26 27 28 29 30 31 32 33 34 35 36 37 38 39 40 41 42 43 44 45 46 47 48 49 50
000
ASUS43 KFGF 031731
RWRFGF
PRAIRIE TO PINES  WEATHER ROUNDUP
NATIONAL WEATHER SERVICE EASTERN NORTH DAKOTA/GRAND FORKS ND
1200 PM CDT SUN MAY 03 2015

 **SATELLITE DATA USED TO AUGMENT SKY COVER AT AUTOMATED STATIONS**
 *****  WEATHER ACROSS EASTERN NORTH DAKOTA  *****

CITY           SKY/WX    TMP DP  RH WIND       PRES   REMARKS
GRAND FORKS    CLOUDY    60  35  39 W17       29.90R
GRAND FRKS AFB CLOUDY    63  28  27 NW18      29.90S
GRAND FRKS NWS   N/A     61 N/A N/A NW13        N/A
DEVILS LAKE    PTSUNNY   61  25  25 NW18G33   29.92S
FARGO          CLOUDY    62  36  37 N23G33    29.89R
WAHPETON ARPT  PTSUNNY   64  36  34 N24G30    29.88R
$$

 ***** WEATHER ACROSS CENTRAL AND WESTERN NORTH DAKOTA  *****

CITY           SKY/WX    TMP DP  RH WIND       PRES   REMARKS
BISMARCK       PTSUNNY   61  25  25 N13G21    29.99S
MINOT          SUNNY     58  25  28 W20       29.98R
JAMESTOWN      PTSUNNY   57  26  30 N25G33    29.91R
MINOT AFB      SUNNY     59  28  30 NW20G31   29.96S
GARRISON         N/A     61  25  25 NW20G26   29.99R
WILLISTON      LGT RAIN  58  25  28 NW16G22   30.04R
DICKINSON      MOSUNNY   57  28  33 NW8G20    30.01R
HETTINGER      PTSUNNY   57  35  43 N10       30.02R
$$

 *****  OTHER AIRPORT OBSERVATIONS IN OUR AREA  *****

CITY           SKY/WX    TMP DP  RH WIND       PRES   REMARKS
WALHALLA       FAIR      61  30  31 NW20G32   29.89S
GRAFTON AIRPOR FAIR      61  30  31 NW17G26   29.90S
VALLEY CITY AR LGT RAIN  55  32  41 N24G31    29.91R
CANDO          FAIR      61  27  27 NW18G24   29.94R
CAVALIER APRT  FAIR      63  28  27 NW18G24   29.89R
GWINNER        SUNNY     66  36  32 N20G28    29.92R
SHEYENNE NWR     N/A     64  37  37 N14       29.95
ROLLA          NOT AVBL
 ***** THE ABOVE OBSERVATIONS ARE NON NWS ARE NOT QUALITY
       CONTROLLED AND MAY MIS-REPORT RAIN FOR SNOW...
$$

  *****  WEATHER ACROSS NORTHERN MINNESOTA  *****

CITY           SKY/WX    TMP DP  RH WIND       PRES   REMARKS
FLAG ISLAND    MOSUNNY   57  39  51 NW17G32   29.80R
WARROAD        PTSUNNY   61  39  44 W18G25    29.84R
ROSEAU         MOSUNNY   63  39  42 W16G25    29.85R
HALLOCK        PTSUNNY   61  25  25 NW21G29   29.87R
THF RVR FALLS  CLOUDY    61  34  36 W20       29.90R
BAUDETTE       CLOUDY    61  39  44 W10G21    29.82R
WASKISH        CLOUDY    63  45  51 W13       29.85R
CROOKSTON      CLOUDY    61  32  33 NW17G23   29.91R
$$
  *****  WEATHER ACROSS CENTRAL AND WEST MINNESOTA  *****

CITY           SKY/WX    TMP DP  RH WIND       PRES   REMARKS
FOSSTON        NOT AVBL
BEMIDJI        CLOUDY    61  37  41 NW18      29.86R
PARK RAPIDS    PTSUNNY   69  36  29 NW15      29.85R
ELBOW LAKE     FAIR      66  42  40 N16G23    29.86R
WADENA         MOSUNNY   68  39  34 NW15      29.85R
DETROIT LAKES  PTSUNNY   63  37  39 N16G22    29.90R
MOORHEAD       CLOUDY    63  36  36 N22       29.90R
FERGUS FALLS   PTSUNNY   64  39  39 N17G23    29.87R
MORRIS MN      MOSUNNY   72  41  33 N24G35    29.83R
STAPLES        PTSUNNY   66  43  42 NW12G17   29.83R
$$
  *****  WEATHER ELSEWHERE ACROSS MINNESOTA  *****

CITY           SKY/WX    TMP DP  RH WIND       PRES   REMARKS
DULUTH         MOSUNNY   76  44  32 VRB5      29.76R
INTRNTL FALLS  PTSUNNY   65  37  35 NW20G26   29.79R
ELY            MOSUNNY   73  28  19 W20G25    29.75R
CLOQUET        MOSUNNY   73  39  29 NW8       29.78R
WHEATON        MOSUNNY   66  39  37 N22G29    29.88R
BRAINERD       NOT AVBL
HIBBING        MOSUNNY   77  32  19 NW13      29.76R
ALEXANDRIA     PTSUNNY   67  46  47 N15       29.84R
SAINT CLOUD    CLOUDY    64  54  69 CALM      29.80S
MINNEAPOLIS    PTSUNNY   74  55  51 CALM      29.79R
$$

  *****  WEATHER ACROSS SOUTH DAKOTA  *****

CITY           SKY/WX    TMP DP  RH WIND       PRES   REMARKS
SIOUX FALLS    PTSUNNY   77  55  46 VRB5      29.77R
BROOKINGS      PTSUNNY   72  54  53 N20G26    29.81R
WATERTOWN      SUNNY     70  40  33 N31G39    29.85R
HURON          SUNNY     72  40  31 N26G40    29.85R
SISSETON         N/A     71  38  29 NE28G35   29.85R
ABERDEEN       MOSUNNY   66  36  32 N26G33    29.90R
MITCHELL       SUNNY     77  56  48 NE18G26   29.80R
PIERRE         MOSUNNY   72  38  29 NE25G35   29.88R
MOBRIDGE       PTSUNNY   63  35  35 N18       29.93R
RAPID CITY     SUNNY     64  36  35 N20       30.00R
$$

  *****  SOME WEATHER IN NEARBY STATES *****

CITY           SKY/WX    TMP DP  RH WIND       PRES   REMARKS
GLASGOW MT     CLOUDY    55  29  36 N10       30.07R
GREAT FALLS MT SUNNY     50  29  44 CALM      30.02S
CHEYENNE WY    MOSUNNY   65  35  33 NW18G26   30.03R
SCOTTSBLUFF NE SUNNY     66  36  32 NE14      29.96R
OMAHA NE       PTSUNNY   76  60  57 S12       29.75S
DES MOINES IA  CLOUDY    77  57  50 S14G20    29.82R
DAVENPORT IA   CLOUDY    72  53  51 S15G24    29.90S
CHICAGO IL     PTSUNNY   75  47  36 S16G22    29.96F
EAU CLAIRE WI  MOSUNNY   71  52  50 W8        29.80S
LA CROSSE WI   PTSUNNY   73  53  49 S9        29.82F
$$

  *****  SOME NATIONAL WEATHER *****

CITY           SKY/WX    TMP DP  RH WIND       PRES   REMARKS
LA GUARDIA NY  MOSUNNY   75  38  26 CALM      30.07F
RALEIGH NC     MOSUNNY   75  44  33 SW3       30.19F
ATLANTA GA     MOSUNNY   76  46  34 S10       30.20S
NEW ORLEANS LA MOSUNNY   79  56  45 NE8       30.12F
OKLAHOMA CITY  PTSUNNY   74  58  57 S14       29.97S
ALBUQUERQUE NM MOSUNNY   69  36  29 CALM      30.07F
SALT LAKE CITY PTSUNNY   73  37  27 S9        29.91R
LOS ANGELES CA MOSUNNY   63  54  72 W7        29.93S
BOISE ID       SUNNY     59  34  39 CALM      29.90S
SEATTLE WA     SUNNY     57  43  59 N8        30.01F
$$

*** WEATHER ACROSS MANITOBA...SASKATCHEWAN AND ONTARIO ***
                ***ONTARIO***

CITY           SKY/WX    TMP DP  RH WIND       PRES   REMARKS
GERALDTON      PTSUNNY   66  50  55 SW10G17   29.65S
THUNDER BAY    PTSUNNY   68  48  49 E9        29.67S
SIOUX LOOKOUT  MOSUNNY   59  39  47 NW12G18   29.72R
TORONTO        MOSUNNY   73  45  35 SE10      30.03F
BIG TROUT LK   CLOUDY    37  34  87 NW16      29.66R
PICKLE LAKE    PTSUNNY   54  37  54 NW9       29.65R
DRYDEN         SUNNY     61  39  44 W12G21    29.73R
KENORA         PTSUNNY   59  37  44 W16G23    29.78R
$$
                *** MANITOBA***

CITY           SKY/WX    TMP DP  RH WIND       PRES   REMARKS
BRANDON        MOSUNNY   57  34  41 NW31G38   29.91R
DAUPHIN        MOSUNNY   55  39  54 W18G24    29.88R
ISLAND LAKE    CLOUDY    37  32  81 N8        29.77R
PILOT MOUND      N/A     57  28  33 NW20G29     N/A
THE PAS        CLOUDY    39  34  81 NW10      29.90R
THOMPSON       CLOUDY    34  27  75 N8        29.85R
WINNIPEG       PTSUNNY   59  37  44 W18G32    29.86R
LYNN LAKE      MOSUNNY   37  27  65 N8        29.87R
CHURCHILL      CLOUDY    23  21  93 NW15G22   29.85R WCI  10
GILLAM         CLOUDY    27  23  86 N12       29.83R WCI  16
$$
                ***SASKATCHEWAN***

CITY           SKY/WX    TMP DP  RH WIND       PRES   REMARKS
ESTEVAN        MOSUNNY   55  30  38 NW20G29   30.01R
KINDERSLEY     PTSUNNY   48  30  49 W6G17     30.05S
LLOYDMINSTER   PTSUNNY   45  36  70 W5        30.04R
PRINCE ALBERT  MOSUNNY   54  34  47 NW15G22   29.97R
REGINA         PTSUNNY   52  34  50 NW16G22   30.02R
YORKTON        PTSUNNY   50  36  57 NW17G30   29.95R
N. BATTLEFORD  MOSUNNY   48  37  66 W9        30.04S
LA RONGE       CLOUDY    45  34  65 NW16G25   29.95R
SASKATOON      MOSUNNY   52  34  50 NW13      30.03R
SWIFT CURRENT  MOSUNNY   48  28  46 N16G22    30.05S
$$
NOTE: THESE ARE AUTOMATED STATIONS WITH LIMITED QUALITY CONTROL
      "FAIR" INDICATES FEW OR NO CLOUDS BELOW 12,000 FEET WITH NO
      SIGNIFICANT WEATHER AND/OR OBSTRUCTIONS TO VISIBILITY.
      SKY/WX - SKY CONDITION AND SIGNIFICANT WEATHER.
      TMP - AIR TEMPERATURE.    DP   - DEWPOINT TEMPERATURE.
      RH  - RELATIVE HUMIDITY.  PRES - PRESSURE.
      HX  - HEAT INDEX.         WCI  - WIND CHILL INDEX.
$


USA.gov is the U.S. government's official web portal to all federal, state and local government web resources and services.